"Pseudo-MPEC" for P10PMDw

Created 2019 Jul 14 13:07:09 UT using Find_Orb

Click here for an explanation of pseudo-MPECs

 
 Astrometry: 
     P10PMDw  C2019 07 116T?'P2.=4ARVTDiwTou=Q;HWq3vWmsY)'R1WesOy;'UoxF4HBRy]F51
     P10PMDw  C2019 07 11T0/gafZZyaQ)rGoq)KAc#gwK/)JG^5V%vv`0uXKL;CC=E8iN=0kAF51
     P10PMDw  C2019 07 11whFarq.0`5\nOlia=o:8t_+cgHsXCp!jWM;?]!7L7+)NcD@:6:TAF51
     P10PMDw  C2019 07 11WuDPTAstrometryA/e2\+?[wEr\!U1eU/_JyS$u0ys:-:nZZx:fqF51
     P10PMDw KC2019 07 12v==Hy$d]YMv]MOaH_;ASH5H?I(=dHi`e`b?Xf)pWl]^BE,[:'ibpH21
     P10PMDw KC2019 07 127'@sy*BBDa(,:Md0Mu#dYyc?4#F#@pn!jBNvL%$3`s`J)gE`QX_;H21
     P10PMDw KC2019 07 12wNw+8mT:8vnf:k9sIYBf]L-\f^:LS7TL4_d\9$t5s:)-#g36dStjH21
     P10PMDw  C2019 07 12.35772323 16 40.12 -09 52 00.9    ~7C9b 21.2 GVNEOCPH01
     P10PMDw  C2019 07 12.36378223 16 40.25 -09 52 13.9    ~7C9b 21.2 GVNEOCPH01
     P10PMDw KC2019 07 12`0VyK\R6X+PCAi!oYt/lq?4*0x8^BxnxQs[^jKu!_Ea1$5tt(k:p734
     P10PMDw  C2019 07 12.37363623 16 40.47 -09 52 35.0    ~7C9b 21.2 GVNEOCPH01
     P10PMDw KC2019 07 12P$nhb6@0hr*IVtOrIredacted;P2euMPSbJNDpB:FFb4.R.AD6Ps734
     P10PMDw  C2019 07 12.38669523 16 40.76 -09 53 03.3    ~7C9b 21.0 GVNEOCPH01
     P10PMDw KC2019 07 12cy$Odyn-?[=5W1[#tIeW]!8:FNjskjw@.QB#^;vsX1PiF-=ILD/E734
     P10PMDw ^C2019 07 12.53035323 16 44.557-09 58 08.84   ~7CHb 21.50GVNEOCP568
     P10PMDw ^C2019 07 12.53154023 16 44.581-09 58 11.40   ~7CHb 21.45GVNEOCP568
     P10PMDw ^C2019 07 12.53273523 16 44.605-09 58 13.96   ~7CHb 21.48GVNEOCP568
     P10PMDw KC2019 07 13rIE!nsl^p3l!/I9JclickEf(VpLV#i%)3`93here2X3dQHmoWVq[H21
     P10PMDw KC2019 07 137ct.i+eYdoF$bY7XlJCC*EyQnWb3(CQs`%'PdG/O/-XiD6[I3X-3H21
     P10PMDw KC2019 07 1429'C!nKxyx^YZhC'QLwaZUPXEe[3wCF/\MR7BW5uVMT6xqm$nT8#H21
     P10PMDw KC2019 07 14^KH#,for5!O[0ecc_tkZP?5@[g7(E_]^bu/eyoy6ddSMA8fL,+aMH21
     P10PMDw KC2019 07 14@(IN$`ff5O+4x,hwvSOZ7g\#9icUp)74,?lF+3\4p3$90lOL=p/AH21
     P10PMDw KC2019 07 14dx^sngd\N*ONib0$Z[k_tU_f\i8y9!t#yXPG;^(EgVh)glc]Hvmb734
     P10PMDw KC2019 07 14O+.(D0#c5ReimIexplanationqljN[so'\K?_!2!=a,%i*5F,S6_734

Station data:
(568) Mauna Kea  (N19.826116 W155.472200)  US/Hawaii.
(734) Farpoint Observatory, Eskridge  (N38.890107 W96.001400)  US/Kansas.
   Observer G. Hug. 0.69-m reflector + CCD.
(F51) Pan-STARRS 1, Haleakala  (N20.707235 W156.255910)  US/Hawaii.
   Observers N. Primak, A. Schultz, S. Watters, J. Thiel, T. Goggia. Measurer
   PS1 Science Consortium. 1.8-m Ritchey-Chrétien + CCD.
(H01) Magdalena Ridge Observatory, Socorro  (N33.984833 W107.189333)  US/New
   Mexico.  Observers W. H. Ryan, E. V. Ryan. Measurer W. H. Ryan. 2.4-m
   f/8.9 reflector + CCD.
(H21) Astronomical Research Observatory, Westfield  (N39.483057 W87.968270)
   US/Illinois. 0.76-m f/3.0 astrograph + CCD.

Orbital elements:  P10PMDw
   Perihelion 2019 May 2.356252 +/- 0.246 TT =  8:33:00 (JD 2458605.856252)
Epoch 2019 Jul 14.0 TT = JDT 2458678.5   Earth MOID: 0.2270   Ma: 0.0032
M  15.51058600 +/- 0.46             (J2000 ecliptic)          AutoNEOCP
n   0.21351577 +/- 0.00622          Peri.  121.01504 +/- 0.15
a   2.77235861 +/- 0.0538           Node   123.70660 +/- 0.15
e   0.6022314 +/- 0.00711           Incl.   20.25527 +/- 0.20
P   4.62                   H 20.7   G  0.15   U  9.3  
q 1.10275713 +/- 0.00189    Q 4.44196009 +/- 0.104
From 24 observations 2019 July 11-14; mean residual 0".25
Residuals in arcseconds: 
190711 F51  .05+  .09+    190712 H01  .03-  .08-    190712 568  .03-  .00     
190711 F51  .10-  .07+    190712 734  .23+  .37-    190713 H21  .22-  .46+    
190711 F51  .22-  .25+    190712 H01  .00   .07+    190713 H21  .80-  .38+    
190711 F51  .03-  .08-    190712 734  .16+  .27-    190714 H21  .23-  .66+    
190712 H21  .35-  .08+    190712 H01  .05+  .09-    190714 H21  .02+  .09+    
190712 H21  .25+  .41+    190712 734  .26+  .48-    190714 H21  .22+  .12-    
190712 H21  .22+  .22+    190712 568  .02-  .01-    190714 734  .23+  .41-    
190712 H01  .05+  .14-    190712 568  .02-  .01-    190714 734  .00   .20-    

Ephemerides (geocentric):
Date (UTC) HH   RA              Dec         delta   r     elong  mag " sig PA
---- -- -- --  -------------   -----------  ------ ------ -----  --- ---- ---
2019 07 14 13  23 17 29.916   -11 10 22.23  .56203 1.4185 125.5 21.7 .179 119
2019 07 14 14  23 17 30.717   -11 11 52.50  .56208 1.4188 125.5 21.7 .189 116
2019 07 14 15  23 17 31.511   -11 13 22.78  .56214 1.4191 125.6 21.7 .200 113
2019 07 14 16  23 17 32.299   -11 14 53.08  .56219 1.4194 125.6 21.7 .211 111
2019 07 14 17  23 17 33.082   -11 16 23.38  .56225 1.4197 125.6 21.7 .223 109
2019 07 14 18  23 17 33.858   -11 17 53.70  .56230 1.4200 125.7 21.7 .235 107
2019 07 14 19  23 17 34.628   -11 19 24.02  .56236 1.4203 125.7 21.7 .248 105
2019 07 14 20  23 17 35.393   -11 20 54.36  .56241 1.4206 125.8 21.7 .262 104
2019 07 14 21  23 17 36.151   -11 22 24.71  .56247 1.4209 125.8 21.7 .276 102
2019 07 14 22  23 17 36.903   -11 23 55.08  .56253 1.4212 125.9 21.7 .290 101
2019 07 14 23  23 17 37.650   -11 25 25.45  .56258 1.4215 125.9 21.7 .305 100
2019 07 15 00  23 17 38.390   -11 26 55.84  .56264 1.4218 126.0 21.7 .321  98
2019 07 15 01  23 17 39.124   -11 28 26.23  .56270 1.4221 126.0 21.7 .337  97
2019 07 15 02  23 17 39.853   -11 29 56.64  .56275 1.4224 126.0 21.7 .353  96
2019 07 15 03  23 17 40.575   -11 31 27.06  .56281 1.4227 126.1 21.7 .370  95
2019 07 15 04  23 17 41.292   -11 32 57.49  .56287 1.4230 126.1 21.7 .388  94
2019 07 15 05  23 17 42.002   -11 34 27.92  .56293 1.4233 126.2 21.7 .406  94
2019 07 15 06  23 17 42.706   -11 35 58.37  .56298 1.4236 126.2 21.7 .424  93
2019 07 15 07  23 17 43.405   -11 37 28.83  .56304 1.4239 126.3 21.7 .443  92
2019 07 15 08  23 17 44.097   -11 38 59.31  .56310 1.4242 126.3 21.7 .462  91
2019 07 15 09  23 17 44.784   -11 40 29.79  .56316 1.4245 126.4 21.7 .481  91
2019 07 15 10  23 17 45.464   -11 42 00.28  .56322 1.4248 126.4 21.7 .501  90
2019 07 15 11  23 17 46.139   -11 43 30.78  .56328 1.4251 126.5 21.7 .522  90
2019 07 15 12  23 17 46.807   -11 45 01.29  .56333 1.4254 126.5 21.7 .543  89
2019 07 15 13  23 17 47.469   -11 46 31.81  .56339 1.4257 126.5 21.7 .564  89
2019 07 15 14  23 17 48.126   -11 48 02.34  .56345 1.4260 126.6 21.7 .585  88
2019 07 15 15  23 17 48.776   -11 49 32.88  .56351 1.4263 126.6 21.7 .607  88
2019 07 15 16  23 17 49.421   -11 51 03.43  .56357 1.4266 126.7 21.7 .630  87
2019 07 15 17  23 17 50.059   -11 52 33.99  .56363 1.4269 126.7 21.7 .653  87
2019 07 15 18  23 17 50.692   -11 54 04.56  .56369 1.4272 126.8 21.7 .676  86
2019 07 15 19  23 17 51.318   -11 55 35.13  .56375 1.4275 126.8 21.7 .700  86
2019 07 15 20  23 17 51.939   -11 57 05.72  .56381 1.4278 126.9 21.7 .724  86
2019 07 15 21  23 17 52.554   -11 58 36.31  .56387 1.4281 126.9 21.7 .748  85
2019 07 15 22  23 17 53.162   -12 00 06.92  .56394 1.4284 126.9 21.7 .773  85
2019 07 15 23  23 17 53.765   -12 01 37.53  .56400 1.4287 127.0 21.7 .798  85
2019 07 16 00  23 17 54.361   -12 03 08.15  .56406 1.4289 127.0 21.7 .824  85
2019 07 16 01  23 17 54.952   -12 04 38.78  .56412 1.4292 127.1 21.7 .850  84
2019 07 16 02  23 17 55.537   -12 06 09.42  .56418 1.4295 127.1 21.7 .877  84
2019 07 16 03  23 17 56.115   -12 07 40.07  .56424 1.4298 127.2 21.7 .903  84
2019 07 16 04  23 17 56.688   -12 09 10.72  .56431 1.4301 127.2 21.7 .931  84
2019 07 16 05  23 17 57.254   -12 10 41.38  .56437 1.4304 127.3 21.7 .958  83
2019 07 16 06  23 17 57.815   -12 12 12.05  .56443 1.4307 127.3 21.7 .986  83
2019 07 16 07  23 17 58.370   -12 13 42.73  .56449 1.4310 127.3 21.7 1.01  83
2019 07 16 08  23 17 58.918   -12 15 13.42  .56456 1.4313 127.4 21.7 1.04  83
2019 07 16 09  23 17 59.461   -12 16 44.11  .56462 1.4316 127.4 21.7 1.07  82
2019 07 16 10  23 17 59.998   -12 18 14.81  .56468 1.4319 127.5 21.7 1.10  82
2019 07 16 11  23 18 00.529   -12 19 45.52  .56475 1.4322 127.5 21.7 1.13  82
2019 07 16 12  23 18 01.053   -12 21 16.24  .56481 1.4325 127.6 21.7 1.16  82